GFSNW_prec_cthk_231.txt.gz
RH
59 60 68 62 61 66 82 93 94 68 51 80 83 97 96 83 81 81 75 71 71 59 53 50 45 40 39 38 43 52 46 58 60 57 57 59 60 66 69 81 83 80 77 56
84 80 78 80 71 76 78 92 93 88 68 80 85 82 88 90 90 84 86 75 74 75 58 58 51 46 46 45 48 51 55 62 80 76 68 70 74 74 69 71 75 69 78 64
93 95 92 89 86 79 89 99 98 98 87 70 81 74 80 87 89 85 90 85 82 79 73 64 61 59 57 56 54 56 61 73 68 65 63 64 71 70 66 69 74 68 60 59
95 98 97 98 92 81 99 98 97 82 85 87 78 71 73 82 94 93 90 95 90 84 88 78 76 68 69 68 71 71 73 75 74 73 71 70 67 66 71 69 61 67 53 60
98 98 99 99 98 92 99 98 85 78 86 71 77 73 73 82 93 95 92 88 85 87 91 88 85 77 74 72 80 80 83 88 80 83 80 76 72 68 67 66 66 63 62 60
92 92 93 95 99 99 98 91 75 69 64 86 83 72 69 84 85 87 83 76 88 93 94 90 91 86 83 78 80 87 87 88 90 89 88 89 88 68 68 66 66 63 65 61
98 97 92 98 99 90 92 76 77 71 68 69 85 62 64 77 88 79 78 82 91 89 89 94 96 92 93 91 90 88 91 88 95 96 98 98 71 66 66 65 67 66 64 65
92 93 94 88 85 95 88 83 74 63 62 61 63 65 58 77 79 91 91 94 90 92 94 98 99 99 99 99 97 94 89 95 98 98 96 85 73 66 73 70 65 65 68 69
87 98 95 96 94 93 92 79 61 56 74 83 68 68 61 71 86 98 97 96 98 96 98 98 98 98 97 98 98 98 97 96 97 98 97 90 66 64 71 74 69 64 67 65
88 93 96 95 98 95 85 70 62 75 77 85 86 80 70 66 87 97 96 97 98 97 98 98 98 98 97 98 96 96 99 99 98 98 98 85 71 65 71 79 64 64 67 70
93 94 98 98 96 89 72 70 77 81 87 98 94 86 85 74 85 95 94 98 99 99 98 98 98 97 96 96 93 92 94 97 97 98 98 91 74 67 73 67 65 62 64 65
98 98 94 93 93 88 83 84 83 88 92 97 97 98 92 84 84 87 95 94 95 95 97 97 98 98 98 93 96 94 97 92 95 94 89 77 72 65 62 62 61 60 61 61
99 99 99 99 94 93 93 92 91 88 96 96 91 94 96 93 90 90 93 97 96 98 91 96 98 98 94 96 95 94 91 90 94 90 80 76 72 69 64 61 61 61 59 60
98 98 99 99 99 98 96 98 94 91 92 96 92 92 94 98 96 95 99 97 94 96 95 97 98 96 93 94 89 89 89 91 90 88 80 79 76 70 67 65 65 65 64 64
97 98 98 99 99 98 99 97 96 93 87 93 88 88 90 93 94 93 96 97 95 95 96 97 97 94 92 93 90 85 79 80 82 79 77 75 73 69 65 66 66 65 63 63
97 97 98 98 98 98 99 99 96 86 81 86 95 95 88 92 98 97 99 96 97 95 98 97 97 95 96 97 91 73 72 75 74 74 73 71 70 67 66 68 70 67 65 64
91 93 93 98 98 97 98 95 92 87 88 93 92 90 91 92 97 97 98 99 98 98 99 99 98 97 97 96 84 70 70 71 74 74 72 71 70 68 69 70 72 73 70 68
99 98 97 98 99 99 97 97 95 95 95 96 98 97 96 96 98 96 98 98 98 98 98 98 96 94 97 91 73 68 71 74 75 75 72 72 73 74 76 75 76 73 71 71
96 99 97 96 94 92 88 88 94 94 91 82 81 86 89 92 98 98 98 98 98 98 97 95 97 97 93 79 73 72 73 76 79 80 78 76 77 75 72 73 73 71 69 65
85 94 95 97 96 94 93 92 93 98 89 83 75 76 84 88 90 93 97 97 95 97 90 96 97 89 79 73 73 71 74 73 71 69 69 71 74 73 71 69 65 60 58 57
82 82 83 84 92 96 97 96 94 92 88 81 82 85 85 89 91 91 90 93 91 92 86 88 89 86 81 74 67 68 69 72 72 68 67 61 58 56 56 56 56 56 58 58
93 90 90 95 95 93 96 97 96 91 89 85 86 90 94 96 95 97 95 96 92 90 80 81 78 64 73 70 64 64 66 67 67 63 59 56 52 50 51 54 58 60 60 56
89 90 90 90 90 91 88 91 88 89 89 89 92 93 95 98 98 97 97 97 96 85 82 74 69 70 72 64 61 63 62 61 57 56 51 47 49 52 54 55 53 51 49 43
73 73 85 86 89 87 84 77 79 84 88 93 94 94 97 96 94 94 96 96 91 94 80 74 69 69 72 72 69 62 55 47 43 43 44 45 44 44 46 45 43 39 38 40
58 65 74 81 87 92 89 83 84 88 91 92 91 95 95 98 96 94 89 92 89 85 78 71 65 63 59 53 49 46 45 41 37 38 39 40 39 40 40 37 35 41 49 50
63 61 70 79 86 88 90 89 96 94 90 85 88 95 97 96 92 84 84 80 76 70 65 62 58 54 51 47 46 47 45 39 33 31 31 32 34 34 36 39 47 51 45 46
58 62 65 70 66 69 73 85 97 95 91 89 84 84 82 84 81 77 75 73 64 61 56 54 51 46 44 43 44 44 44 42 39 37 39 41 47 51 54 55 53 53 56 56

GFSNW_prec_cthk_237.txt.gz
RH
51 54 55 58 62 64 76 80 84 68 80 94 93 90 75 49 44 44 55 59 88 82 86 74 71 54 42 39 39 51 48 56 61 55 52 46 43 40 45 54 45 51 44 31
49 49 53 57 63 75 81 88 86 83 81 90 92 91 84 63 56 51 55 67 74 86 94 95 66 52 46 44 49 43 50 61 64 61 60 54 53 50 47 46 50 41 52 33
47 47 52 56 63 62 75 85 96 93 90 79 82 93 83 74 63 66 61 57 71 80 95 88 75 58 52 50 51 49 55 58 57 49 36 52 63 54 51 54 62 44 41 40
48 56 66 78 86 96 95 89 81 75 89 83 77 82 79 77 75 61 64 64 75 87 89 96 88 76 70 63 57 57 58 60 56 50 50 54 53 58 56 58 49 59 41 41
54 67 75 86 92 99 98 97 79 67 60 71 80 78 75 74 69 69 64 55 49 62 96 96 92 81 84 73 68 62 61 63 62 66 66 61 63 56 56 52 50 48 46 40
70 77 82 91 97 99 98 98 97 87 79 83 91 80 62 59 60 73 61 51 49 77 76 75 84 95 85 86 80 74 67 65 74 73 71 77 79 53 55 52 50 46 47 42
76 76 74 84 95 100 99 98 97 96 86 82 75 63 61 60 60 59 55 59 70 45 77 87 87 97 97 92 91 90 78 73 78 81 87 96 51 54 51 52 52 51 50 54
72 75 81 91 95 96 97 98 99 94 88 78 77 80 69 62 63 72 68 63 50 58 65 84 99 97 99 91 90 97 95 82 92 97 97 71 63 66 61 60 53 52 58 61
75 79 82 92 92 95 94 98 98 93 91 84 57 73 74 71 76 73 69 70 71 75 85 98 97 95 83 98 92 89 96 98 91 99 97 88 70 64 69 70 63 60 64 63
87 86 79 93 92 99 98 98 96 98 94 84 84 74 63 57 71 72 68 67 78 72 96 96 98 98 91 95 89 97 98 99 97 97 98 85 73 67 73 79 63 63 68 66
86 85 85 87 94 99 96 97 91 97 96 92 80 73 67 71 80 82 69 83 83 82 97 98 94 97 91 92 97 97 97 98 98 99 98 89 75 77 74 70 67 69 71 68
80 81 76 86 93 98 96 99 98 98 95 93 87 85 80 76 72 73 84 78 65 63 83 96 99 96 94 79 85 90 98 91 94 93 83 76 74 72 69 66 70 70 71 70
87 78 68 73 94 98 94 98 94 94 96 92 98 90 83 79 79 78 82 64 55 57 85 92 97 99 83 85 81 85 93 88 93 91 81 81 76 78 76 74 70 66 65 66
92 87 80 76 78 84 86 91 91 88 87 90 92 95 93 92 86 77 68 68 71 70 81 96 99 98 95 90 82 74 82 93 95 94 88 83 83 80 77 71 69 67 67 67
94 95 89 84 85 86 90 93 91 88 79 91 96 91 82 78 80 76 78 81 83 86 86 96 98 98 98 98 96 86 78 85 89 82 80 83 81 78 74 73 70 66 69 75
99 97 95 95 96 97 98 98 92 86 90 87 90 83 89 88 87 83 85 88 90 90 91 93 96 98 97 98 96 76 74 79 87 92 87 84 80 76 76 76 72 70 73 73
98 99 98 96 95 90 85 88 81 82 78 81 95 95 89 87 87 89 91 93 92 95 97 96 86 92 97 94 85 67 70 82 83 80 80 81 79 78 75 73 70 70 70 69
97 97 98 99 97 92 85 80 83 82 88 98 98 94 90 91 92 90 87 89 97 96 98 99 98 98 98 97 73 70 74 79 78 78 77 77 77 77 75 69 65 64 65 66
98 98 98 99 99 98 97 97 98 97 99 96 91 88 85 91 90 89 93 95 95 97 95 96 98 96 97 79 83 79 76 75 78 82 78 76 73 72 71 66 63 60 61 65
98 98 98 98 98 99 98 99 99 99 98 93 87 83 81 84 85 87 89 94 98 97 89 93 96 93 85 80 80 81 78 79 78 78 75 72 72 69 69 68 65 62 64 67
99 98 98 98 98 98 97 98 97 96 94 89 84 82 86 86 79 82 87 92 95 97 93 97 91 72 64 76 81 77 78 77 79 78 74 71 69 67 69 70 67 69 70 74
98 97 98 98 97 94 92 93 90 87 83 76 74 78 81 83 83 85 88 88 93 90 89 90 82 72 64 68 72 77 79 79 78 81 79 74 72 74 77 79 81 83 83 80
94 93 96 97 95 87 85 88 83 79 75 73 72 74 80 83 82 84 88 92 96 87 83 73 71 70 67 66 71 72 75 79 81 80 78 75 77 77 76 81 84 82 75 71
75 82 88 86 88 78 73 70 72 76 74 74 75 79 84 86 89 90 94 95 93 95 79 66 63 65 65 66 66 76 81 83 82 78 73 71 72 72 72 76 72 70 71 72
71 72 81 85 83 84 80 77 76 77 79 79 83 88 91 96 96 94 95 97 95 84 74 67 62 65 63 66 73 82 86 84 79 73 66 63 62 65 68 70 69 72 70 68
76 74 79 78 81 82 86 89 86 83 81 86 95 97 97 94 96 96 95 94 89 77 73 70 67 66 63 67 70 71 70 71 73 71 65 63 61 59 61 64 66 67 64 58
74 77 85 87 87 91 90 88 88 89 89 92 96 96 94 95 95 89 90 91 79 78 80 77 73 68 64 64 64 64 69 69 64 59 53 51 55 60 63 63 60 55 49 46

GFSNW_prec_cthk_243.txt.gz
RH
31 34 35 39 42 48 53 59 62 57 64 78 71 63 59 51 45 40 33 33 36 37 36 41 53 68 76 51 52 54 58 58 62 48 47 56 48 54 54 67 62 54 54 37
32 34 39 40 45 55 58 62 63 61 74 75 75 72 65 63 58 51 50 45 38 34 39 58 62 62 44 61 65 68 62 70 77 50 61 62 63 56 48 49 59 64 67 38
33 31 34 41 47 59 64 68 70 72 77 70 74 78 69 66 60 53 59 57 57 50 53 52 48 43 41 54 61 71 71 72 72 67 49 45 64 57 52 60 67 57 52 34
32 28 28 42 51 61 70 71 69 70 68 76 72 74 68 65 64 56 58 63 68 54 54 53 58 45 35 46 66 76 79 73 74 67 56 57 60 57 64 62 58 60 40 36
29 28 32 46 54 65 72 70 69 77 68 70 77 68 65 70 59 59 54 66 55 56 64 61 55 40 39 45 52 58 75 94 80 73 47 53 56 60 60 68 60 54 40 43
31 31 34 47 58 67 71 72 70 72 65 70 80 72 57 55 55 61 62 65 71 78 64 38 40 52 56 65 68 64 78 89 98 96 60 47 64 59 61 62 55 53 52 29
31 32 44 52 58 64 70 72 72 78 66 69 61 57 66 66 57 67 72 74 78 50 48 74 75 73 80 70 62 79 88 97 98 95 94 92 54 44 47 56 54 47 38 30
38 42 49 55 61 68 72 71 74 76 74 64 64 63 59 63 70 83 74 64 61 86 85 89 94 77 78 70 62 61 68 93 97 96 96 86 66 49 49 46 38 36 40 31
44 50 56 60 65 71 79 82 88 94 94 68 51 71 71 78 78 80 66 66 67 80 87 96 94 96 84 62 53 49 55 74 87 94 97 95 53 40 51 63 64 37 41 38
53 55 59 69 75 76 85 85 90 98 96 62 80 76 66 66 82 82 79 67 84 81 88 98 95 74 40 62 66 58 69 77 87 97 98 83 59 57 66 69 53 41 44 39
63 62 67 70 73 78 87 84 97 99 95 83 82 79 84 85 88 88 62 92 92 90 98 84 70 74 87 69 57 56 66 72 72 80 91 85 52 67 85 52 53 54 61 56
66 69 72 76 86 92 96 91 95 99 99 94 91 91 85 83 88 89 93 91 88 80 88 73 62 71 63 84 76 64 75 71 66 79 62 59 73 74 74 77 68 70 68 65
72 73 78 83 83 82 85 78 94 99 98 99 98 93 81 90 90 93 93 95 89 90 79 73 73 77 69 76 67 76 69 64 81 90 71 67 75 83 72 75 76 70 66 69
77 83 78 72 70 72 75 85 92 98 98 98 86 84 89 86 87 93 96 93 91 86 92 95 79 77 73 69 67 75 66 72 71 72 75 87 81 75 78 76 82 81 75 73
88 87 79 72 67 85 88 92 92 97 98 91 90 91 94 88 89 92 94 93 88 96 94 92 91 93 90 77 76 65 66 59 69 61 68 91 90 80 71 67 74 79 83 78
93 93 84 75 76 83 88 90 87 88 91 94 92 90 94 91 91 93 96 97 92 91 90 84 79 73 90 85 68 40 51 50 57 58 62 70 78 90 69 69 69 78 87 90
95 97 92 77 70 73 80 84 80 85 90 87 91 90 92 92 86 85 86 89 91 96 95 89 86 81 87 81 62 39 45 53 60 69 74 88 96 86 86 85 84 85 87 89
98 98 94 88 82 79 78 75 78 83 93 93 93 88 84 83 85 88 84 87 91 94 91 86 80 78 80 69 42 46 47 58 61 68 69 85 94 91 80 78 82 87 87 87
97 99 99 96 91 88 87 83 80 84 90 86 82 80 83 81 83 87 94 96 98 94 88 86 95 91 79 45 52 50 54 60 70 73 74 79 96 95 93 91 89 90 91 90
99 98 99 98 98 97 91 90 90 92 93 85 80 80 87 87 94 97 98 97 98 98 91 95 96 66 54 57 61 59 63 67 81 78 83 90 96 94 90 88 87 90 91 90
99 98 98 98 98 99 98 96 90 85 85 79 75 74 78 87 91 92 91 94 91 88 85 95 83 61 66 66 61 59 65 80 80 80 80 93 93 92 87 88 90 88 87 85
98 98 98 98 98 98 98 98 96 89 82 78 76 79 83 91 95 93 92 90 87 78 78 82 73 73 72 63 58 59 67 77 80 92 92 97 96 97 95 92 89 88 85 83
98 98 98 98 97 98 97 94 92 89 80 82 85 89 92 96 96 91 87 85 78 70 76 65 67 70 69 72 77 75 70 80 91 87 88 92 92 90 89 89 88 86 82 78
98 98 97 98 97 90 82 81 83 86 83 82 84 88 88 85 87 84 84 79 75 79 78 72 74 69 70 75 90 84 94 90 84 82 85 85 88 88 90 89 84 79 76 75
95 94 97 92 88 88 89 89 89 89 85 80 78 80 81 85 88 80 78 85 80 74 78 83 78 72 75 82 93 96 96 92 89 89 87 86 89 89 86 82 82 81 83 86
91 86 88 88 87 90 90 90 85 79 74 72 73 77 86 86 84 85 82 83 80 87 85 89 90 83 85 90 92 90 98 98 98 95 89 86 84 83 88 90 91 91 87 82
87 84 84 86 88 87 87 85 83 79 81 84 77 82 77 76 79 80 78 86 87 84 86 92 91 90 95 98 98 98 98 98 99 98 98 98 97 97 93 86 84 81 79 78

GFSNW_prec_cthk_246.txt.gz
RH
28 28 31 34 37 41 45 53 59 43 55 65 61 60 58 55 46 44 42 39 35 29 29 31 36 38 35 42 57 69 60 84 72 62 43 45 55 64 59 64 69 67 76 51
30 30 31 36 40 44 54 61 59 50 64 66 64 61 56 61 59 48 46 42 42 40 35 39 35 36 32 41 63 73 78 90 87 56 55 49 56 52 62 79 64 69 78 57
33 33 32 34 40 46 54 63 67 66 64 63 63 66 63 61 55 55 55 51 54 43 51 52 45 41 34 30 45 58 68 94 98 97 77 72 70 54 59 69 83 65 65 50
38 36 35 34 34 46 59 62 64 68 68 62 60 60 56 60 60 58 55 55 48 55 65 55 58 43 35 30 27 33 47 69 77 82 86 82 73 70 56 63 70 74 60 55
40 39 38 35 33 41 58 61 65 65 59 58 67 65 63 64 59 60 54 64 56 63 65 50 54 59 54 52 56 66 63 68 52 69 69 69 78 76 60 58 69 67 59 54
42 42 41 38 33 42 57 58 62 65 56 62 70 73 64 56 64 59 55 55 64 69 49 51 65 67 64 69 79 78 75 82 81 81 70 84 85 55 63 53 54 64 74 51
45 46 43 41 38 42 51 57 64 69 61 60 59 64 71 67 60 53 54 64 72 40 66 79 77 77 75 72 63 67 88 93 87 76 71 93 57 63 72 54 38 46 55 44
52 48 45 45 43 45 54 56 66 70 64 63 57 60 56 62 61 68 64 52 53 71 78 92 97 81 75 60 54 54 60 76 90 81 65 57 43 50 60 68 62 43 40 34
51 45 43 43 47 53 56 58 64 73 70 55 54 61 55 58 65 74 61 58 80 82 80 97 85 86 85 82 59 49 56 65 96 94 83 69 28 29 47 60 85 53 47 38
42 41 44 56 59 58 64 65 69 78 70 57 62 56 58 75 79 78 68 67 82 83 88 91 96 92 84 87 74 68 75 83 82 66 75 59 22 34 58 74 59 64 69 52
41 46 62 67 68 67 71 69 76 77 65 50 66 71 78 81 86 89 57 92 88 93 98 96 76 82 69 78 69 65 74 74 74 87 87 79 23 36 52 62 66 65 71 72
45 65 74 75 74 74 82 81 84 89 93 69 80 78 83 89 86 89 90 94 90 93 96 96 83 88 73 71 69 42 66 64 71 67 58 43 42 38 38 54 72 78 76 88
62 76 79 77 77 81 85 87 96 99 99 93 88 77 85 92 86 90 96 97 91 93 85 91 91 93 65 75 60 42 48 50 77 86 57 49 48 41 35 43 62 74 86 86
72 81 81 80 80 86 94 90 96 100 97 97 91 87 85 89 91 94 97 98 98 95 96 97 99 92 77 61 52 65 49 57 61 59 64 61 46 40 39 45 52 69 86 89
76 87 85 84 85 78 78 81 83 91 96 98 93 89 84 91 90 89 92 94 97 98 95 92 90 87 83 91 81 65 47 54 64 67 57 67 51 39 40 44 48 70 75 83
84 90 91 91 88 76 76 87 94 92 90 99 98 89 84 86 90 94 95 92 92 89 98 98 86 76 93 98 82 52 61 65 63 60 54 58 46 38 47 54 59 72 81 86
89 94 96 92 90 84 82 81 87 93 98 99 97 87 83 86 89 92 92 93 95 95 94 88 89 92 94 91 75 31 41 48 53 50 50 48 43 45 62 62 67 84 85 78
91 98 99 94 85 79 80 80 77 84 96 98 89 86 84 85 86 84 86 96 99 98 98 94 87 86 94 88 42 38 43 45 50 47 48 47 41 50 66 66 78 93 94 88
95 99 99 99 89 80 79 82 82 90 97 91 87 78 82 80 82 83 85 81 77 74 72 71 76 68 68 43 48 48 49 65 62 58 57 53 57 72 79 81 81 97 91 86
98 99 98 97 96 92 88 88 91 93 90 88 82 81 84 76 76 82 83 83 82 81 70 75 74 58 59 62 65 64 63 67 68 63 68 69 76 80 82 88 87 89 96 91
98 98 98 97 98 99 98 96 90 85 80 72 71 77 81 79 79 84 85 90 83 86 76 85 73 63 63 82 92 79 79 72 66 70 88 89 94 89 91 97 97 97 95 95
98 98 98 98 98 98 98 96 85 77 69 67 72 79 77 78 80 85 89 88 82 74 76 81 59 56 74 70 68 69 72 71 71 76 93 95 91 95 97 97 95 93 94 96
98 99 98 98 97 98 97 89 81 76 72 69 73 78 77 80 82 89 95 93 79 68 75 63 57 64 63 67 67 71 73 78 79 74 86 95 98 98 98 98 98 97 94 95
98 98 98 97 96 92 90 83 78 77 77 81 86 89 88 88 93 93 90 79 74 71 66 61 68 69 62 68 74 79 89 95 87 84 90 97 98 98 97 98 96 98 97 96
98 98 98 95 93 93 89 89 87 84 84 87 89 91 90 92 93 83 78 83 74 68 69 81 78 74 71 79 87 89 96 97 92 97 98 98 99 98 98 98 98 93 89 88
98 96 93 88 89 90 87 88 88 87 92 93 91 90 88 83 82 82 79 75 74 81 82 82 77 83 84 83 91 94 98 98 98 98 98 98 98 96 94 92 90 91 94 95
96 91 92 90 90 89 89 86 86 85 87 88 81 79 75 75 77 75 73 76 81 82 82 79 81 87 92 93 90 90 97 97 97 98 97 97 96 97 95 98 97 91 87 84

GFSNW_prec_cthk_249.txt.gz
RH
28 26 26 28 33 38 40 48 48 41 45 56 58 56 51 52 48 45 47 46 42 37 33 36 32 30 29 29 39 46 64 83 78 57 43 49 56 63 66 80 90 85 82 61
31 29 29 31 35 39 47 51 47 43 56 60 58 58 57 53 54 53 51 47 42 40 44 48 39 31 23 32 38 51 60 84 93 51 48 59 77 81 87 84 77 94 99 82
34 32 31 33 38 43 48 58 60 50 53 57 59 58 60 66 60 58 62 53 52 56 50 46 41 36 39 32 29 41 62 66 81 80 64 71 78 79 78 89 98 96 96 81
37 36 35 34 36 45 53 59 60 58 56 53 52 60 56 54 60 57 61 52 53 55 53 48 51 52 52 50 49 43 53 70 65 62 59 73 69 63 63 69 78 96 79 88
47 46 44 44 43 44 58 59 61 56 54 55 56 58 57 62 58 58 56 58 55 57 53 70 63 60 54 56 50 60 64 61 69 66 51 57 68 66 61 62 68 72 73 74
53 50 48 46 44 45 53 56 55 58 56 54 54 54 56 57 62 60 54 62 65 62 68 77 72 73 66 65 71 71 76 77 78 73 54 58 72 57 54 48 49 60 71 65
55 52 48 46 47 51 52 54 54 62 58 56 53 53 56 60 58 61 58 69 65 60 71 74 71 73 71 66 55 60 64 75 88 78 69 83 38 42 39 42 37 45 53 58
58 54 51 49 51 54 61 54 57 60 58 56 56 54 48 50 55 57 62 68 72 78 74 87 98 92 94 62 58 55 67 73 86 92 79 67 54 36 39 41 30 29 36 37
63 57 57 59 59 56 61 58 56 63 60 52 57 58 48 57 59 54 46 58 69 77 82 93 97 89 76 81 66 51 58 65 82 75 87 78 42 36 40 41 49 24 34 47
65 63 61 58 53 50 59 57 56 63 59 54 53 56 60 64 67 60 55 59 66 80 92 97 94 91 93 90 96 69 75 76 93 91 90 70 41 31 51 71 36 44 42 49
68 63 57 54 51 52 65 66 67 67 61 60 64 61 61 64 68 65 62 73 75 84 94 98 88 86 77 84 66 65 71 76 75 77 85 85 53 55 64 51 47 47 44 53
63 58 52 48 54 66 73 73 73 78 73 65 61 65 61 70 77 83 80 79 85 94 97 89 84 85 86 76 78 56 72 63 71 72 62 49 46 57 48 50 48 45 45 38
60 53 45 49 68 75 79 79 83 85 81 76 74 65 79 80 88 91 95 88 84 89 93 96 98 97 78 84 70 58 67 49 70 58 39 41 42 40 42 49 50 48 48 40
58 46 46 61 75 80 83 83 83 89 91 89 76 75 73 75 79 89 95 85 98 95 98 98 99 98 87 75 69 74 47 58 51 59 43 39 40 39 42 46 58 52 46 39
53 42 54 70 81 85 87 87 90 97 99 91 91 83 81 82 82 86 91 91 94 96 99 96 98 96 91 87 94 92 54 49 70 63 42 52 46 45 47 50 57 52 48 40
44 45 66 81 87 90 93 92 89 91 95 93 89 81 86 84 81 84 86 91 91 96 93 88 88 89 96 98 87 45 48 52 59 63 55 62 49 41 45 46 48 50 45 41
43 56 78 90 91 97 99 88 81 86 95 99 99 91 82 86 84 82 86 92 90 95 99 98 98 94 96 97 92 40 60 63 65 59 56 54 40 46 43 45 46 51 48 47
46 68 88 95 96 99 96 88 85 88 95 99 96 92 85 79 80 81 79 81 85 88 88 86 95 96 93 83 50 53 58 58 55 43 51 50 41 38 44 49 48 47 44 45
61 89 97 99 99 97 91 86 84 86 97 97 97 86 82 78 76 77 78 78 80 82 82 82 84 77 73 47 48 45 45 55 55 58 57 51 54 52 53 54 53 52 56 61
79 98 99 98 97 98 91 88 87 88 93 95 87 82 82 76 78 78 77 78 78 78 70 76 78 68 62 66 63 66 73 72 75 72 67 69 70 60 57 58 59 68 77 83
97 98 98 98 99 99 97 92 90 88 82 78 78 78 83 81 76 78 77 82 83 83 78 83 78 74 64 61 63 67 72 75 73 71 68 70 64 69 74 79 86 89 94 96
98 98 98 99 99 98 98 97 92 82 73 70 73 73 75 80 81 81 82 86 81 78 80 84 73 71 59 58 60 64 66 64 63 64 65 72 80 83 93 94 96 96 98 98
98 98 98 98 98 98 98 88 82 78 71 70 72 74 75 80 83 82 83 83 79 75 84 80 74 64 63 61 65 63 63 67 66 72 75 79 92 97 98 98 98 99 99 98
98 98 98 97 98 94 89 79 74 74 74 78 81 85 86 85 88 88 89 81 78 82 76 74 72 69 76 74 68 68 70 74 82 89 91 85 90 98 98 98 98 97 97 97
98 98 98 96 93 89 87 83 80 83 85 85 90 93 92 97 97 94 86 86 75 75 79 79 77 77 77 70 75 83 87 91 96 98 93 92 97 98 98 98 98 97 97 97
98 98 98 95 95 92 89 87 89 89 88 88 89 96 98 95 93 92 89 81 76 81 82 78 75 77 77 78 83 93 97 97 97 96 98 97 98 97 98 98 97 97 98 97
98 94 91 92 91 91 90 85 88 87 88 92 92 94 91 88 91 85 76 79 79 80 77 73 77 83 86 88 92 94 97 95 97 97 97 97 97 97 98 97 97 96 95 94

GFSNW_prec_cthk_255.txt.gz
RH
52 41 33 25 24 30 34 40 45 44 33 38 41 42 38 36 40 41 48 48 49 51 55 54 49 44 43 44 44 41 39 43 50 40 33 32 43 55 65 85 78 83 79 56
52 40 32 25 24 32 37 42 47 54 45 46 45 42 39 39 38 46 49 52 54 56 57 58 53 51 46 41 41 43 43 52 58 43 41 47 56 49 51 65 87 76 92 53
51 41 34 26 28 35 41 45 49 55 56 50 46 50 51 46 45 44 41 42 45 45 47 51 53 50 38 34 36 36 41 50 55 64 56 53 50 49 57 63 74 70 70 62
56 45 37 30 31 38 45 48 50 52 57 57 56 52 52 50 50 48 51 51 49 52 57 52 52 47 46 42 42 43 46 53 51 50 55 60 60 59 54 52 53 74 46 59
58 49 42 37 38 42 50 50 51 56 52 51 56 63 68 61 58 61 57 58 55 61 68 53 51 54 58 60 50 52 56 62 58 56 54 54 55 46 54 53 47 48 40 37
61 53 44 40 38 44 50 50 52 52 52 57 58 56 55 54 52 52 49 53 55 57 47 60 63 59 57 62 65 63 66 68 69 56 52 58 56 38 41 39 38 42 45 33
76 64 55 47 42 41 45 48 51 55 53 54 55 52 51 48 47 53 50 52 57 50 64 66 64 63 60 59 60 60 62 70 77 65 63 70 36 31 36 40 37 46 45 37
82 73 68 63 56 52 50 50 54 61 63 57 55 51 49 45 44 48 49 38 41 48 65 73 73 72 69 60 53 56 60 69 78 81 74 57 39 31 35 45 45 43 35 32
87 83 76 72 67 63 59 59 59 64 64 57 50 56 54 56 55 53 47 40 45 49 55 65 73 75 76 69 57 54 63 72 87 88 92 81 29 27 37 54 64 22 32 36
93 85 78 75 73 69 63 63 65 70 72 57 60 61 56 56 59 62 57 57 61 64 69 69 65 63 60 66 61 59 69 79 82 81 91 64 36 35 54 80 39 28 32 37
94 91 86 80 74 70 71 68 69 70 71 66 64 55 54 61 67 74 69 69 62 69 71 71 70 70 60 56 46 51 66 83 84 84 91 77 38 44 61 42 39 39 36 43
91 87 87 83 78 76 74 66 66 71 71 63 57 54 56 60 70 75 79 77 70 74 83 77 79 72 71 65 64 55 71 61 74 86 65 50 48 51 51 54 52 40 46 41
92 89 84 81 79 75 72 70 71 71 71 68 64 53 62 69 76 84 81 74 80 81 83 90 89 89 87 85 72 71 58 62 75 81 48 56 59 68 61 61 62 47 45 45
92 89 87 85 81 79 76 70 64 66 64 70 59 58 56 70 74 76 77 82 89 94 98 98 94 90 84 77 79 81 62 73 77 79 61 69 65 66 60 56 56 55 47 48
86 82 77 78 77 71 66 62 56 55 65 74 73 68 67 78 82 84 88 97 99 99 97 93 87 87 92 83 88 68 65 78 90 78 67 87 74 52 57 64 59 59 60 48
80 83 82 77 76 70 66 65 45 54 75 85 81 64 68 75 79 82 89 90 95 95 92 87 83 86 98 90 72 48 65 78 87 85 73 79 64 54 50 69 58 55 59 56
61 73 82 76 74 68 67 58 77 95 96 91 90 84 73 77 83 83 82 88 89 91 88 81 83 88 98 87 70 50 68 65 65 69 71 59 54 55 47 60 58 60 54 49
57 65 79 79 72 67 62 42 65 87 98 97 94 87 75 75 82 85 88 90 90 85 85 82 80 85 86 78 56 61 61 61 58 61 70 70 60 67 66 65 63 60 54 50
54 58 65 71 67 66 44 57 85 95 99 99 92 84 79 79 83 87 92 89 85 84 80 77 78 76 73 58 60 61 58 61 58 58 61 61 61 59 57 56 54 61 55 56
53 57 57 68 73 61 73 97 99 99 97 97 85 80 78 81 88 91 87 82 81 77 69 72 73 60 55 60 65 66 62 57 58 58 56 57 53 53 50 54 61 66 64 63
56 60 61 66 77 84 98 99 98 98 92 82 79 79 83 89 95 93 86 81 78 76 69 74 68 62 60 64 65 65 64 62 64 66 64 63 62 63 66 67 75 74 73 75
59 63 67 72 78 98 99 97 94 90 81 79 75 74 85 94 94 92 88 81 81 77 78 80 71 65 63 60 60 60 58 58 65 68 70 76 82 82 84 88 88 88 92 98
58 65 75 81 89 98 97 88 85 75 73 76 73 77 86 95 93 93 93 89 85 79 81 74 67 69 69 64 59 54 51 57 69 80 94 94 93 93 93 93 93 96 97 98
64 68 79 86 95 91 86 80 73 70 72 79 80 86 88 88 93 94 90 85 82 81 77 74 75 75 71 63 55 52 53 63 78 93 95 95 95 94 94 94 97 97 97 98
71 73 77 79 80 87 87 88 81 77 79 84 88 89 90 93 92 87 86 87 83 79 79 83 81 82 73 62 56 55 62 72 88 96 97 97 98 97 97 97 97 98 97 98
73 71 72 77 85 87 89 88 87 87 89 91 91 94 95 95 94 92 89 89 84 83 88 90 84 75 70 64 61 63 69 78 94 94 95 97 98 97 97 97 97 97 96 97
69 64 65 85 85 84 89 90 93 96 93 93 94 95 93 97 96 92 90 90 89 90 90 85 80 76 70 68 68 71 79 88 94 95 97 97 98 97 93 93 94 92 90 90